EST,Max TemperatureF,Mean TemperatureF,Min TemperatureF,Max Dew PointF,MeanDew PointF,Min DewpointF,Max Humidity, Mean Humidity, Min Humidity, Max Sea Level PressureIn, Mean Sea Level PressureIn, Min Sea Level PressureIn, Max VisibilityMiles, Mean VisibilityMiles, Min VisibilityMiles, Max Wind SpeedMPH, Mean Wind SpeedMPH, Max Gust SpeedMPH,PrecipitationIn, CloudCover, Events, WindDirDegrees
2011-11-1,63,47,30,38,34,28,92,64,36,30.27,30.21,30.18,10,9,5,15,6,18,0.00,0,Fog,179
2011-11-2,66,53,40,41,37,34,76,57,37,30.22,30.15,30.04,10,10,10,21,10,26,0.00,5,,195
2011-11-3,53,47,41,45,41,37,86,73,59,30.09,30.00,29.94,10,9,5,22,10,28,0.02,8,Rain,64
2011-11-4,53,43,32,37,31,25,89,62,35,30.34,30.25,30.11,10,10,10,18,10,24,0.00,3,,57
2011-11-5,56,42,27,31,28,24,85,62,38,30.36,30.29,30.21,10,10,10,13,6,17,0.00,2,,122
2011-11-6,62,49,36,41,36,28,82,64,46,30.25,30.20,30.16,10,10,10,22,12,28,0.00,4,,180
2011-11-7,57,54,51,54,50,40,96,74,51,30.28,30.24,30.20,10,4,1,17,6,21,0.27,8,Rain,201
2011-11-8,70,62,53,54,52,49,100,78,55,30.20,30.09,29.96,10,7,1,22,9,26,T,7,Rain,156
2011-11-9,67,53,39,56,44,33,86,73,60,29.99,29.83,29.63,10,9,3,35,18,47,0.22,8,Rain,213
2011-11-10,44,38,32,34,29,23,92,69,45,30.03,29.99,29.97,10,10,2,22,13,30,T,5,Snow,253
2011-11-11,43,36,29,29,27,25,92,71,49,30.07,29.99,29.85,10,10,8,20,10,26,0.00,4,,231
2011-11-12,61,47,33,37,34,26,79,59,39,29.96,29.87,29.81,10,10,10,25,14,31,0.00,4,,208
2011-11-13,65,59,52,55,46,36,72,61,50,29.79,29.64,29.54,10,10,10,33,20,44,0.00,6,,204
2011-11-14,69,57,44,61,48,37,93,72,51,29.76,29.64,29.50,10,9,1,33,6,40,0.87,8,Rain-Hail-Thunderstorm,211
2011-11-15,58,51,44,49,47,44,100,86,72,29.86,29.82,29.76,10,7,0,21,7,25,0.00,6,Fog,206
2011-11-16,51,43,34,49,36,21,93,65,36,30.13,29.94,29.83,10,7,1,16,8,23,0.00,7,,285
2011-11-17,37,31,24,24,17,12,74,55,35,30.31,30.20,30.12,10,10,10,24,11,32,0.00,2,,259
2011-11-18,48,36,24,21,18,15,81,55,28,30.33,30.22,30.06,10,10,10,28,13,35,0.00,3,,198
2011-11-19,57,49,41,46,35,22,76,57,38,30.08,30.00,29.90,10,10,8,25,15,32,0.04,7,Rain,201
2011-11-20,60,52,43,51,41,34,77,71,64,30.29,30.14,29.91,10,10,9,26,10,33,0.00,8,,326
2011-11-21,44,42,39,38,37,34,92,81,70,30.33,30.28,30.22,10,10,5,17,13,22,0.05,8,Rain,70
2011-11-22,44,41,38,43,39,36,96,86,76,30.22,29.90,29.68,10,7,2,24,16,29,1.07,8,Rain,53
2011-11-23,53,44,34,40,36,32,100,77,54,30.30,30.12,29.85,10,7,2,18,8,25,0.01,4,Rain,288
2011-11-24,48,41,33,41,37,32,100,88,76,30.33,30.27,30.18,9,4,0,18,10,23,0.00,6,Fog,224
2011-11-25,60,50,39,43,40,37,92,72,51,30.19,30.10,30.02,10,9,6,28,13,35,0.00,4,,208
2011-11-26,65,56,47,49,44,37,72,64,56,30.05,29.97,29.84,10,10,10,28,13,36,0.01,7,Rain,196
2011-11-27,58,48,38,54,46,35,93,85,77,30.05,29.86,29.77,10,8,4,16,9,22,0.61,8,Rain,266
2011-11-28,40,38,36,37,34,30,92,84,76,30.10,30.02,29.85,10,9,2,21,13,28,0.38,8,Rain,35
2011-11-29,41,37,33,39,33,30,100,67,33,30.21,29.73,29.68,20,3,0,24,16,35,2.53,8,Fog-Rain-Snow,346
2011-11-30,39,32,24,31,27,22,92,84,75,30.23,30.00,29.79,10,9,2,23,10,28,0.01,4,Snow,281